FW7213 Weather Reports


Display with metric or nautical units.
time (UTC)temp
F
wind
direction
speed
MPH
gust
MPH
rain 1hr
in
rain 24hr
in
rain mn
in
humidity
%
barometer
mb
20260906214056 85 0 0.0 3.0 0.00 0.00 0.00 76 1010.7
20260906213556 86 339 1.0 6.0 0.00 0.00 0.00 75 1010.8
20260906213106 86 302 2.0 6.0 0.00 0.00 0.00 78 1010.7
20260906212555 87 0 0.0 4.0 0.00 0.00 0.00 75 1010.6
20260906212056 88 0 1.0 4.0 0.00 0.00 0.00 74 1010.7
20260906211558 88 0 0.0 3.0 0.00 0.00 0.00 74 1010.7
20260906211055 89 0 2.0 3.0 0.00 0.00 0.00 72 1010.8
20260906210555 90 243 0.0 1.0 0.00 0.00 0.00 70 1010.7
20260906210113 90 0 0.0 1.0 0.00 0.00 0.00 70 1010.9
20260906205557 91 275 0.0 1.0 0.00 0.00 0.00 69 1010.8
20260906205056 91 0 0.0 1.0 0.00 0.00 0.00 72 1010.8
20260906204604 91 215 0.0 1.0 0.00 0.00 0.00 67 1010.9
20260906204057 91 276 0.0 2.0 0.00 0.00 0.00 70 1010.8
20260906203556 92 257 0.0 3.0 0.00 0.00 0.00 69 1010.9
20260906203101 92 240 0.0 3.0 0.00 0.00 0.00 65 1010.8
20260906202555 92 0 1.0 3.0 0.00 0.00 0.00 68 1010.8
20260906202055 93 183 0.0 4.0 0.00 0.00 0.00 65 1010.8
20260906201635 93 164 1.0 4.0 0.00 0.00 0.00 64 1010.9
20260906201055 93 221 1.0 4.0 0.00 0.00 0.00 67 1011.0
20260906200555 93 136 2.0 4.0 0.00 0.00 0.00 66 1011.0
20260906200104 94 144 2.0 5.0 0.00 0.00 0.00 67 1011.1
20260906195554 94 141 1.0 5.0 0.00 0.00 0.00 62 1011.3
20260906195054 94 166 2.0 5.0 0.00 0.00 0.00 62 1011.5
20260906194607 95 172 3.0 5.0 0.00 0.00 0.00 65 1011.6
20260906194057 96 145 2.0 5.0 0.00 0.00 0.00 63 1011.8
20260906193555 95 233 1.0 4.0 0.00 0.00 0.00 63 1011.8
20260906193100 95 146 1.0 4.0 0.00 0.00 0.00 60 1011.8
20260906192558 95 210 1.0 4.0 0.00 0.00 0.00 60 1011.8
20260906192055 95 154 2.0 4.0 0.00 0.00 0.00 64 1011.8
20260906191609 94 223 0.0 3.0 0.00 0.00 0.00 62 1011.9
20260906191056 93 0 1.0 4.0 0.00 0.00 0.00 62 1012.1
20260906190600 94 0 1.0 4.0 0.00 0.00 0.00 62 1012.2
20260906190103 93 0 1.0 5.0 0.00 0.00 0.00 66 1012.2
20260906185558 93 139 2.0 5.0 0.00 0.12 0.00 65 1012.4
20260906185057 92 155 1.0 4.0 0.00 0.12 0.00 64 1012.5
20260906184602 92 292 0.0 3.0 0.00 0.12 0.00 69 1012.6
20260906184055 91 273 0.0 4.0 0.00 0.12 0.00 68 1012.5
20260906183558 91 183 1.0 4.0 0.00 0.12 0.00 67 1012.6
20260906183106 91 316 0.0 4.0 0.00 0.12 0.00 68 1012.6
20260906182559 92 257 1.0 5.0 0.00 0.12 0.00 68 1012.8
20260906182058 92 0 0.0 5.0 0.00 0.12 0.00 65 1012.6
20260906181633 92 252 0.0 2.0 0.00 0.12 0.00 64 1012.7
20260906181058 93 229 0.0 4.0 0.00 0.12 0.00 66 1012.8
20260906180555 92 340 1.0 4.0 0.00 0.12 0.00 70 1012.7
20260906180107 91 242 0.0 3.0 0.00 0.12 0.00 69 1013.0
20260906175557 92 242 1.0 6.0 0.00 0.12 0.00 70 1013.0
20260906175058 92 231 1.0 6.0 0.00 0.12 0.00 69 1013.0
20260906174601 92 229 1.0 5.0 0.00 0.12 0.00 68 1013.0
20260906174058 91 215 1.0 5.0 0.00 0.12 0.00 69 1013.1
20260906173555 91 227 2.0 5.0 0.00 0.12 0.00 67 1013.1
20260906173106 91 221 1.0 5.0 0.00 0.12 0.00 68 1013.1
20260906172554 90 243 1.0 6.0 0.00 0.12 0.00 73 1013.2
20260906172059 90 278 1.0 6.0 0.00 0.12 0.00 69 1013.2
20260906171602 91 280 2.0 6.0 0.00 0.12 0.00 68 1013.3
20260906171054 90 323 0.0 1.0 0.00 0.12 0.00 69 1013.3
20260906170554 89 0 0.0 5.0 0.00 0.12 0.00 70 1013.4
20260906170100 89 0 1.0 7.0 0.00 0.12 0.00 70 1013.4
20260906165558 90 246 1.0 7.0 0.00 0.23 0.00 74 1013.5
20260906165059 90 223 3.0 5.0 0.00 0.23 0.00 73 1013.6
20260906164605 90 0 0.0 5.0 0.00 0.23 0.00 74 1013.8
20260906164056 90 205 2.0 5.0 0.00 0.23 0.00 73 1014.0
20260906163559 89 176 1.0 3.0 0.00 0.23 0.00 76 1014.0
20260906163109 89 249 1.0 3.0 0.00 0.23 0.00 74 1014.0
20260906162556 88 311 0.0 3.0 0.00 0.23 0.00 77 1013.8
20260906162058 88 0 0.0 2.0 0.00 0.23 0.00 76 1014.0
20260906161609 87 0 0.0 3.0 0.00 0.23 0.00 76 1013.9
20260906161054 87 0 0.0 5.0 0.00 0.23 0.00 78 1014.0
20260906160554 87 0 2.0 5.0 0.00 0.23 0.00 75 1014.1
20260906160101 88 255 1.0 5.0 0.00 0.23 0.00 79 1014.1
20260906155554 87 356 0.0 5.0 0.00 0.23 0.00 79 1014.1
20260906155100 87 134 1.0 6.0 0.00 0.23 0.00 77 1014.1
20260906154609 86 242 2.0 6.0 0.00 0.23 0.00 79 1014.3
20260906154056 86 0 1.0 4.0 0.00 0.23 0.00 82 1014.2
20260906153555 86 296 0.0 5.0 0.00 0.23 0.00 82 1014.3
20260906153102 86 0 0.0 5.0 0.00 0.23 0.00 82 1014.2
20260906152557 85 0 2.0 5.0 0.00 0.23 0.00 80 1014.1
20260906152054 85 233 1.0 4.0 0.00 0.23 0.00 80 1014.2
20260906151601 85 0 0.0 4.0 0.00 0.23 0.00 85 1014.2
20260906151059 84 256 1.0 4.0 0.00 0.23 0.00 82 1014.2
20260906150558 84 0 0.0 3.0 0.00 0.23 0.00 85 1014.4
20260906150109 84 0 0.0 4.0 0.00 0.23 0.00 87 1014.4
20260906145555 84 236 1.0 4.0 0.00 0.23 0.00 84 1014.5
20260906145055 84 235 0.0 2.0 0.00 0.23 0.00 85 1014.6
20260906144601 83 0 0.0 1.0 0.00 0.23 0.00 87 1014.5
20260906144057 83 0 0.0 2.0 0.00 0.23 0.00 87 1014.5
20260906143557 83 259 0.0 2.0 0.00 0.23 0.00 87 1014.3
20260906143108 83 0 0.0 2.0 0.00 0.23 0.00 87 1014.3
20260906142558 82 255 0.0 2.0 0.00 0.23 0.00 91 1014.4
20260906142058 82 0 0.0 3.0 0.00 0.23 0.00 90 1014.3
20260906141600 82 269 0.0 3.0 0.00 0.23 0.00 90 1014.3
20260906141058 82 261 1.0 3.0 0.00 0.23 0.00 90 1014.5
20260906140558 82 186 1.0 3.0 0.00 0.23 0.00 91 1014.4
20260906140108 82 243 0.0 1.0 0.00 0.23 0.00 90 1014.5
20260906135556 81 0 0.0 1.0 0.00 0.23 0.00 91 1014.4
20260906135058 81 0 0.0 2.0 0.00 0.23 0.00 92 1014.5
20260906134616 81 313 0.0 2.0 0.00 0.23 0.00 93 1014.6
20260906134057 80 302 0.0 2.0 0.00 0.23 0.00 95 1014.6
20260906133558 80 306 0.0 1.0 0.00 0.23 0.00 93 1014.5
20260906133108 80 0 0.0 2.0 0.00 0.23 0.00 93 1014.3
20260906132553 80 0 0.0 2.0 0.00 0.23 0.00 93 1014.4
20260906132101 80 0 0.0 2.0 0.00 0.23 0.00 93 1014.4
20260906131605 80 345 0.0 1.0 0.00 0.23 0.00 94 1014.4
20260906131057 79 0 0.0 1.0 0.00 0.23 0.00 95 1014.3
20260906130558 79 0 0.0 0.0 0.00 0.23 0.00 95 1014.3
20260906130113 79 0 0.0 0.0 0.00 0.23 0.00 97 1014.2
20260906125556 78 0 0.0 2.0 0.00 0.23 0.00 97 1014.2
20260906125100 77 0 0.0 2.0 0.00 0.23 0.00 97 1014.2
20260906124602 77 257 0.0 1.0 0.00 0.23 0.00 97 1014.2
20260906124058 76 233 0.0 0.0 0.00 0.23 0.00 97 1014.2
20260906123558 76 0 0.0 1.0 0.00 0.23 0.00 97 1014.2
20260906123101 75 0 0.0 1.0 0.00 0.23 0.00 97 1014.2
20260906122558 75 0 0.0 0.0 0.00 0.23 0.00 97 1014.1
20260906122058 75 0 0.0 0.0 0.00 0.23 0.00 97 1014.2
20260906121623 75 0 0.0 0.0 0.00 0.23 0.00 97 1014.3
20260906121058 75 0 0.0 0.0 0.00 0.23 0.00 97 1014.2
20260906120558 75 0 0.0 0.0 0.00 0.23 0.00 97 1014.2
20260906120103 75 0 0.0 0.0 0.00 0.23 0.00 97 1014.1
20260906115558 75 0 0.0 0.0 0.00 0.23 0.00 97 1014.1
20260906115057 75 0 0.0 0.0 0.00 0.23 0.00 97 1014.1
20260906114625 75 0 0.0 1.0 0.00 0.23 0.00 97 1014.0
20260906114057 75 0 0.0 1.0 0.00 0.23 0.00 97 1013.9
20260906113558 75 0 0.0 1.0 0.00 0.23 0.00 97 1013.9
20260906113113 75 0 0.0 1.0 0.00 0.23 0.00 97 1013.8
20260906112600 75 0 0.0 1.0 0.00 0.23 0.00 97 1013.7
20260906112058 75 0 0.0 1.0 0.00 0.23 0.00 97 1013.7
20260906111606 75 249 0.0 1.0 0.00 0.23 0.00 97 1013.6
20260906111058 75 0 0.0 1.0 0.00 0.23 0.00 97 1013.7
20260906110558 75 0 0.0 1.0 0.00 0.23 0.00 97 1013.7
20260906105557 75 0 0.0 0.0 0.00 0.23 0.00 97 1013.8
20260906105057 75 0 0.0 0.0 0.00 0.23 0.00 97 1013.8
20260906104559 75 0 0.0 0.0 0.00 0.23 0.00 97 1013.5
20260906104058 75 0 0.0 0.0 0.00 0.23 0.00 97 1013.6
20260906103558 75 0 0.0 0.0 0.00 0.23 0.00 97 1013.5
20260906103100 75 0 0.0 0.0 0.00 0.23 0.00 97 1013.5
20260906102557 75 0 0.0 0.0 0.00 0.23 0.00 97 1013.5
20260906102059 75 0 0.0 0.0 0.00 0.23 0.00 97 1013.4
20260906101604 75 0 0.0 1.0 0.00 0.23 0.00 97 1013.3
20260906101055 75 0 0.0 1.0 0.00 0.23 0.00 97 1013.4
20260906100557 75 0 0.0 1.0 0.00 0.23 0.00 97 1013.4
20260906100059 75 0 0.0 1.0 0.00 0.23 0.00 97 1013.3
20260906095554 75 0 0.0 1.0 0.00 0.23 0.00 97 1013.3
20260906095058 75 0 0.0 1.0 0.00 0.23 0.00 97 1013.3
20260906094604 75 0 0.0 1.0 0.00 0.23 0.00 97 1013.3
20260906094058 75 0 0.0 0.0 0.00 0.23 0.00 97 1013.4
20260906093558 75 0 0.0 0.0 0.00 0.23 0.00 97 1013.3
20260906093108 75 0 0.0 0.0 0.00 0.23 0.00 97 1013.2
20260906092555 75 0 0.0 0.0 0.00 0.23 0.00 97 1013.2
20260906092055 75 0 0.0 0.0 0.00 0.23 0.00 97 1013.1
20260906091611 75 0 0.0 0.0 0.00 0.23 0.00 97 1013.1
20260906091054 75 0 0.0 0.0 0.00 0.23 0.00 97 1013.1
20260906090558 75 0 0.0 0.0 0.00 0.23 0.00 97 1013.0
20260906090111 74 0 0.0 0.0 0.00 0.23 0.00 97 1012.9
20260906085558 74 0 0.0 0.0 0.00 0.23 0.00 97 1012.9
20260906085058 75 0 0.0 0.0 0.00 0.23 0.00 97 1012.9
20260906084604 75 0 0.0 1.0 0.00 0.23 0.00 97 1012.8
20260906084058 75 0 0.0 1.0 0.00 0.23 0.00 97 1012.8
20260906083558 75 0 0.0 0.0 0.00 0.23 0.00 97 1012.8
20260906083103 75 0 0.0 0.0 0.00 0.23 0.00 97 1012.8
20260906082557 75 0 0.0 0.0 0.00 0.23 0.00 97 1012.7
20260906082057 75 0 0.0 1.0 0.00 0.23 0.00 97 1012.7
20260906081600 75 0 0.0 1.0 0.00 0.23 0.00 97 1012.7
20260906081057 75 0 0.0 1.0 0.00 0.23 0.00 97 1012.6
20260906080558 75 0 0.0 1.0 0.00 0.23 0.00 97 1012.5
20260906080106 75 0 0.0 1.0 0.00 0.23 0.00 97 1012.6
20260906075558 75 0 0.0 1.0 0.00 0.24 0.00 97 1012.6
20260906075059 75 0 0.0 0.0 0.00 0.24 0.00 97 1012.9
20260906074606 75 0 0.0 0.0 0.00 0.24 0.00 97 1012.7
20260906074057 75 0 0.0 0.0 0.00 0.24 0.00 97 1012.7
20260906073559 75 0 0.0 1.0 0.00 0.24 0.00 97 1012.8
20260906073103 75 0 0.0 1.0 0.00 0.24 0.00 97 1012.7
20260906072558 75 0 0.0 0.0 0.00 0.24 0.00 97 1012.7
20260906072057 75 0 0.0 0.0 0.00 0.24 0.00 97 1012.7
20260906071611 75 0 0.0 0.0 0.00 0.24 0.00 97 1012.8
20260906071057 75 0 0.0 1.0 0.00 0.24 0.00 97 1012.9
20260906070558 75 0 0.0 1.0 0.00 0.24 0.00 97 1012.9
20260906070110 75 0 0.0 0.0 0.00 0.24 0.00 97 1012.9
20260906065558 75 0 0.0 0.0 0.00 0.24 0.00 97 1012.9
20260906065058 75 0 0.0 0.0 0.00 0.24 0.00 97 1012.8
20260906064603 76 0 0.0 0.0 0.00 0.24 0.00 97 1012.8
20260906064059 76 0 0.0 0.0 0.00 0.24 0.00 97 1012.8
20260906063557 76 0 0.0 0.0 0.00 0.24 0.00 97 1012.8
20260906063102 76 0 0.0 0.0 0.00 0.24 0.00 97 1012.7
20260906062601 76 0 0.0 0.0 0.00 0.24 0.00 97 1012.9
20260906062057 76 0 0.0 0.0 0.00 0.24 0.00 97 1012.9
20260906061603 76 0 0.0 0.0 0.00 0.24 0.00 97 1012.8
20260906061058 76 0 0.0 0.0 0.00 0.24 0.00 97 1012.7
20260906060558 76 0 0.0 0.0 0.00 0.24 0.00 97 1012.8
20260906060155 76 0 0.0 0.0 0.00 0.24 0.00 97 1012.9
20260906055558 76 0 0.0 1.0 0.00 0.24 0.00 97 1012.9
20260906055058 76 153 0.0 1.0 0.00 0.24 0.00 97 1013.0
20260906054618 76 156 0.0 1.0 0.00 0.24 0.00 97 1013.0
20260906054059 76 0 0.0 1.0 0.00 0.24 0.00 97 1013.0
20260906053558 76 0 0.0 1.0 0.00 0.24 0.00 97 1013.1
20260906053105 76 157 0.0 1.0 0.00 0.24 0.00 97 1013.1
20260906052559 76 0 0.0 0.0 0.00 0.24 0.00 97 1013.1
20260906052059 76 0 0.0 1.0 0.00 0.24 0.00 97 1013.3
20260906051605 76 0 0.0 1.0 0.00 0.24 0.00 97 1013.3
20260906051058 76 0 0.0 1.0 0.00 0.24 0.00 97 1013.1
20260906050557 76 146 0.0 1.0 0.00 0.24 0.00 97 1013.2
20260906050116 76 148 0.0 1.0 0.00 0.24 0.00 97 1013.3
20260906045557 76 148 0.0 1.0 0.00 0.24 0.24 97 1013.3
20260906045057 76 0 0.0 1.0 0.00 0.24 0.24 97 1013.3
20260906044559 76 0 0.0 1.0 0.00 0.24 0.24 97 1013.2
20260906044100 76 0 0.0 1.0 0.00 0.24 0.24 97 1013.3
20260906043557 76 0 0.0 0.0 0.00 0.24 0.24 97 1013.3
20260906043112 76 0 0.0 1.0 0.00 0.24 0.24 97 1013.4
20260906042558 76 0 0.0 1.0 0.00 0.24 0.24 97 1013.3
20260906042058 76 145 0.0 1.0 0.00 0.24 0.24 97 1013.4
20260906041602 76 0 0.0 1.0 0.00 0.24 0.24 97 1013.5
20260906041058 77 145 0.0 0.0 0.00 0.24 0.24 97 1013.4
20260906040557 77 0 0.0 0.0 0.00 0.24 0.24 97 1013.5
20260906040106 77 0 0.0 0.0 0.00 0.24 0.24 97 1013.5
20260906035558 77 0 0.0 0.0 0.00 0.24 0.24 97 1013.6
20260906035058 77 0 0.0 0.0 0.00 0.24 0.24 97 1013.8
20260906034606 77 0 0.0 0.0 0.00 0.24 0.24 97 1014.0
20260906034057 77 0 0.0 0.0 0.00 0.24 0.24 97 1014.0
20260906033558 77 0 0.0 0.0 0.00 0.24 0.24 97 1014.2
20260906033107 77 0 0.0 0.0 0.00 0.24 0.24 97 1014.1
20260906032557 77 0 0.0 0.0 0.00 0.24 0.24 97 1014.1
20260906032056 77 0 0.0 0.0 0.00 0.24 0.24 97 1014.2
20260906031627 77 0 0.0 0.0 0.00 0.24 0.24 96 1014.2
20260906031056 78 0 0.0 0.0 0.00 0.24 0.24 96 1014.3
20260906030556 78 0 0.0 0.0 0.00 0.24 0.24 96 1014.2
20260906030106 78 0 0.0 0.0 0.00 0.24 0.24 96 1014.2
20260906025558 78 0 0.0 0.0 0.00 0.24 0.24 95 1014.1
20260906025056 78 0 0.0 0.0 0.00 0.24 0.24 95 1014.0
20260906024608 78 0 0.0 0.0 0.00 0.24 0.24 95 1014.0
20260906024056 79 0 0.0 2.0 0.00 0.24 0.24 94 1014.0
20260906023558 79 0 0.0 2.0 0.00 0.24 0.24 94 1013.8
20260906023112 79 145 0.0 2.0 0.00 0.24 0.24 94 1013.5
20260906022602 79 0 0.0 1.0 0.00 0.24 0.24 94 1013.5
20260906022057 79 159 0.0 1.0 0.00 0.24 0.24 94 1013.4
20260906021601 79 162 0.0 1.0 0.00 0.24 0.24 94 1013.5
20260906021056 79 156 0.0 1.0 0.00 0.24 0.24 94 1013.5
20260906020555 79 0 0.0 1.0 0.00 0.24 0.24 93 1013.5
20260906020109 79 0 0.0 0.0 0.00 0.24 0.24 93 1013.4
20260906015556 79 0 0.0 0.0 0.00 0.24 0.24 93 1013.4
20260906015056 79 197 0.0 1.0 0.00 0.24 0.24 93 1013.2
20260906014600 79 0 0.0 1.0 0.00 0.24 0.24 92 1013.2
20260906014056 79 0 0.0 1.0 0.00 0.24 0.24 92 1013.2
20260906013556 79 0 0.0 1.0 0.00 0.24 0.24 92 1013.0
20260906013110 79 0 0.0 0.0 0.00 0.24 0.24 92 1012.8
20260906012555 79 0 0.0 0.0 0.00 0.24 0.24 92 1012.7
20260906012055 79 152 0.0 0.0 0.00 0.24 0.24 93 1012.7
20260906011610 79 0 0.0 0.0 0.00 0.24 0.24 93 1012.8
20260906011055 79 152 0.0 0.0 0.00 0.24 0.24 93 1012.8
20260906010555 79 0 0.0 0.0 0.00 0.24 0.24 94 1012.7
20260906010109 79 0 0.0 0.0 0.00 0.24 0.24 93 1012.6
20260906005556 79 0 0.0 0.0 0.00 0.24 0.24 93 1012.5
20260906005056 79 0 0.0 0.0 0.00 0.24 0.24 93 1012.4
20260906004602 80 0 0.0 0.0 0.00 0.24 0.24 93 1012.3
20260906004055 80 0 0.0 0.0 0.00 0.24 0.24 91 1012.2
20260906003556 80 0 0.0 0.0 0.00 0.24 0.24 90 1012.4
20260906003105 80 0 0.0 0.0 0.00 0.24 0.24 89 1012.3
20260906002559 81 0 0.0 0.0 0.00 0.24 0.24 89 1012.2
20260906002056 81 0 0.0 0.0 0.00 0.24 0.24 87 1012.3
20260906001604 81 0 0.0 0.0 0.00 0.24 0.24 86 1012.3
20260906001056 82 0 0.0 0.0 0.00 0.24 0.24 85 1012.2
20260906000556 83 0 0.0 0.0 0.00 0.24 0.24 85 1012.3
20260906000110 83 0 0.0 2.0 0.00 0.24 0.24 82 1012.2
20260905235556 84 0 0.0 2.0 0.00 0.24 0.24 81 1012.1
20260905235056 85 0 0.0 2.0 0.00 0.24 0.24 80 1012.3
20260905234603 85 0 0.0 2.0 0.00 0.24 0.24 79 1012.3
20260905234059 86 0 0.0 2.0 0.00 0.24 0.24 78 1012.4
20260905233556 87 214 0.0 2.0 0.00 0.24 0.24 80 1012.4
20260905233106 87 237 0.0 1.0 0.00 0.24 0.24 79 1012.4
20260905232556 87 0 0.0 1.0 0.00 0.24 0.24 77 1012.5
20260905232056 88 0 0.0 2.0 0.00 0.24 0.24 79 1012.7
20260905231618 88 165 0.0 2.0 0.00 0.24 0.24 80 1012.7
20260905231055 88 0 0.0 4.0 0.00 0.24 0.24 75 1012.7
20260905230555 88 245 1.0 4.0 0.00 0.24 0.24 75 1012.6
20260905230104 89 226 0.0 4.0 0.00 0.24 0.24 75 1012.6
20260905225555 89 0 2.0 4.0 0.00 0.24 0.24 74 1012.6
20260905225056 90 278 1.0 4.0 0.00 0.24 0.24 72 1012.7
20260905224604 90 212 1.0 4.0 0.00 0.24 0.24 75 1012.7
20260905224055 91 169 2.0 3.0 0.00 0.24 0.24 75 1012.8
20260905223555 91 173 0.0 2.0 0.00 0.24 0.24 71 1013.0
20260905223101 90 0 0.0 2.0 0.00 0.24 0.24 73 1012.9
20260905222557 90 0 0.0 2.0 0.00 0.24 0.24 72 1013.0
20260905222055 90 266 0.0 2.0 0.00 0.24 0.24 73 1013.0
20260905221626 90 0 1.0 3.0 0.00 0.24 0.24 71 1013.0
20260905221055 90 146 0.0 3.0 0.00 0.24 0.24 74 1012.9
20260905220555 90 236 0.0 2.0 0.00 0.24 0.24 70 1012.9
20260905220106 90 0 0.0 2.0 0.00 0.24 0.24 71 1012.9
20260905215556 89 143 0.0 1.0 0.00 0.25 0.24 71 1012.7
20260905215056 90 0 0.0 1.0 0.00 0.25 0.24 73 1012.6
20260905214608 90 0 0.0 1.0 0.00 0.25 0.24 70 1012.6